Cleveland Municipal Airport, MS

2:52 AM CDT on May 30, 2017 (GMT -0500)
Cleveland Municipal

Weather History for KRNV - March, 2014

Change the Weather History Date:

Sunday, March 23, 2014

  Actual Average (KGLH) Record (KGLH)
Temperature  
Mean Temperature 47 °F -  
Max Temperature 53 °F 66 °F 87 °F (1929)
Min Temperature 41 °F 44 °F 30 °F (1943)
Degree Days  
Heating Degree Days 18    
Moisture  
Dew Point 39 °F    
Average Humidity 74    
Maximum Humidity 96    
Minimum Humidity 46    
Precipitation  
Precipitation 0.23 in - - ()
Sea Level Pressure  
Sea Level Pressure 30.22 in    
Wind  
Wind Speed 18 mph (NNE)    
Max Wind Speed 25 mph    
Max Gust Speed 31 mph    
Visibility 9 miles    
Events Rain , Thunderstorm    
Averages and records for this station are not official NWS values.
T = Trace of Precipitation, MM = Missing Value Source: NWS Daily Summary

Daily Weather History Graph

Daily Weather History Graph

Search for Another Location

Airport or City:

Trip Planner

Search our weather history database for the weather conditions in past years. The results will help you decide how hot, cold, wet, or windy it might be!

Date:

Astronomy

Mar. 23, 2014 Rise Set
Actual Time 7:02 AM CDT 7:16 PM CDT
Civil Twilight 6:37 AM CDT 7:41 PM CDT
Nautical Twilight 6:08 AM CDT 8:11 PM CDT
Astronomical Twilight 5:39 AM CDT 8:40 PM CDT
Moon 1:20 AM CDT (3/23) 11:57 AM CDT (3/23)
Length of Visible Light 13h 04m
Length of Day
12h 14m
Waning Gibbous, 54% of the Moon is Illuminated
Mar 23
Waning Gibbous
Mar 23
Last Quarter
Mar 30
New
Apr 7
First Quarter
Apr 15
Full

Hourly Weather History & Observations

Time (CDT) Temp. Windchill Dew Point Humidity Pressure Visibility Wind Dir Wind Speed Gust Speed Precip Events Conditions
12:15 AM 53.6 °F - 44.6 °F 72% 30.05 in 10.0 mi NNE 12.7 mph 19.6 mph N/A Thunderstorm Overcast
12:35 AM 53.6 °F - 44.2 °F 71% 30.06 in 10.0 mi North 15.0 mph 19.6 mph N/A   Overcast
12:55 AM 52.3 °F - 44.2 °F 74% 30.09 in 10.0 mi North 19.6 mph 24.2 mph N/A Rain Light Rain
1:15 AM 51.4 °F - 44.6 °F 77% 30.07 in 10.0 mi North 18.4 mph 23.0 mph N/A   Overcast
1:35 AM 49.8 °F - 45.3 °F 84% 30.07 in 10.0 mi NNE 16.1 mph - N/A Thunderstorm Overcast
1:55 AM 49.1 °F - 45.5 °F 87% 30.09 in 10.0 mi North 18.4 mph 24.2 mph N/A Thunderstorm Overcast
2:15 AM 47.8 °F - 45.9 °F 93% 30.09 in 4.0 mi North 19.6 mph - 0.06 in Rain Light Rain
2:35 AM 47.1 °F - 45.3 °F 93% 30.10 in 10.0 mi NNE 18.4 mph 29.9 mph 0.07 in Thunderstorm Overcast
2:55 AM 46.9 °F - 45.5 °F 95% 30.09 in 10.0 mi NNE 21.9 mph 27.6 mph 0.07 in Thunderstorm Unknown
3:15 AM 46.9 °F - 44.6 °F 92% 30.12 in 10.0 mi North 20.7 mph 25.3 mph N/A   Overcast
3:35 AM 46.6 °F - 44.6 °F 93% 30.11 in 10.0 mi NNE 18.4 mph - N/A Rain Light Rain
3:55 AM 46.2 °F 39.5 °F 43.7 °F 91% 30.10 in 10.0 mi NNE 16.1 mph 24.2 mph N/A   Overcast
4:15 AM 46.4 °F 39.2 °F 43.0 °F 88% 30.10 in 10.0 mi NNE 18.4 mph 26.5 mph N/A   Overcast
4:35 AM 46.6 °F - 43.3 °F 88% 30.12 in 10.0 mi NNE 17.3 mph - N/A Thunderstorm Overcast
4:55 AM 46.0 °F 38.5 °F 43.0 °F 89% 30.12 in 10.0 mi NNE 19.6 mph 26.5 mph N/A   Overcast
5:15 AM 45.3 °F 38.1 °F 43.5 °F 93% 30.16 in 3.0 mi NNE 17.3 mph 23.0 mph 0.06 in Rain Heavy Rain
5:35 AM 44.8 °F 37.4 °F 43.7 °F 96% 30.17 in 7.0 mi NNE 17.3 mph - 0.09 in Rain Light Rain
5:55 AM 44.6 °F 36.4 °F 43.0 °F 94% 30.17 in 10.0 mi NNE 20.7 mph 28.8 mph 0.09 in   Overcast
6:15 AM 44.1 °F 36.5 °F 42.8 °F 95% 30.17 in 7.0 mi NNE 17.3 mph 25.3 mph 0.02 in Rain Light Rain
6:35 AM 43.9 °F 35.9 °F 42.6 °F 95% 30.19 in 5.0 mi North 18.4 mph 23.0 mph 0.04 in Rain Heavy Rain
6:55 AM 43.7 °F 35.7 °F 42.4 °F 95% 30.22 in 7.0 mi North 18.4 mph - 0.04 in Rain Light Rain
7:15 AM 43.2 °F 35.0 °F 42.1 °F 96% 30.22 in 7.0 mi North 18.4 mph - 0.01 in Rain Light Rain
7:35 AM 43.0 °F 34.5 °F 41.5 °F 95% 30.23 in 4.0 mi North 19.6 mph - 0.02 in Rain Rain
7:55 AM 42.8 °F 34.8 °F 41.0 °F 93% 30.24 in 7.0 mi North 17.3 mph 26.5 mph 0.03 in Rain Light Rain
8:15 AM 42.4 °F 33.5 °F 41.2 °F 95% 30.24 in 5.0 mi North 20.7 mph 25.3 mph N/A   Overcast
8:35 AM 42.1 °F 33.1 °F 40.5 °F 94% 30.25 in 7.0 mi North 20.7 mph 25.3 mph N/A   Overcast
8:55 AM 42.6 °F 33.8 °F 40.3 °F 91% 30.27 in 10.0 mi North 20.7 mph 28.8 mph N/A   Overcast
9:15 AM 42.6 °F 33.8 °F 39.4 °F 88% 30.27 in 10.0 mi North 20.7 mph 27.6 mph N/A   Overcast
9:35 AM 42.8 °F 34.8 °F 39.0 °F 86% 30.28 in 10.0 mi North 17.3 mph 21.9 mph N/A   Overcast
9:55 AM 42.8 °F 34.3 °F 38.5 °F 85% 30.28 in 10.0 mi NNE 19.6 mph - N/A   Overcast
10:15 AM 44.2 °F 36.2 °F 39.7 °F 84% 30.28 in 10.0 mi North 19.6 mph - N/A   Mostly Cloudy
10:35 AM 45.1 °F 37.9 °F 40.3 °F 83% 30.29 in 10.0 mi NNE 17.3 mph 23.0 mph N/A   Scattered Clouds
10:55 AM 46.6 °F - 41.2 °F 81% 30.30 in 10.0 mi NNE 17.3 mph 26.5 mph N/A   Mostly Cloudy
11:15 AM 46.4 °F 38.5 °F 40.3 °F 79% 30.30 in 10.0 mi North 21.9 mph 27.6 mph N/A   Overcast
11:35 AM 46.8 °F - 40.3 °F 78% 30.30 in 10.0 mi North 25.3 mph 29.9 mph N/A   Overcast
11:55 AM 48.2 °F - 40.1 °F 74% 30.30 in 10.0 mi North 21.9 mph 28.8 mph N/A   Mostly Cloudy
12:15 PM 48.7 °F - 40.6 °F 74% 30.30 in 10.0 mi NNE 17.3 mph - N/A   Mostly Cloudy
12:35 PM 49.1 °F - 40.6 °F 73% 30.30 in 10.0 mi NNE 17.3 mph 27.6 mph N/A   Mostly Cloudy
12:55 PM 49.3 °F - 41.2 °F 74% 30.29 in 10.0 mi North 16.1 mph - N/A   Scattered Clouds
1:15 PM 51.1 °F - 41.2 °F 69% 30.29 in 10.0 mi North 18.4 mph - N/A   Scattered Clouds
1:35 PM 50.7 °F - 41.2 °F 70% 30.28 in 10.0 mi North 18.4 mph 24.2 mph N/A   Scattered Clouds
1:55 PM 51.4 °F - 40.3 °F 66% 30.27 in 10.0 mi NNE 16.1 mph 26.5 mph N/A   Scattered Clouds
2:15 PM 51.6 °F - 41.0 °F 67% 30.26 in 10.0 mi North 20.7 mph 28.8 mph N/A   Scattered Clouds
2:35 PM 52.3 °F - 39.4 °F 61% 30.25 in 10.0 mi NNE 23.0 mph 28.8 mph N/A   Clear
2:55 PM 53.1 °F - 39.7 °F 61% 30.23 in 10.0 mi North 24.2 mph 28.8 mph N/A   Clear
3:15 PM 53.1 °F - 38.7 °F 58% 30.22 in 10.0 mi North 24.2 mph 31.1 mph N/A   Clear
3:35 PM 52.9 °F - 35.1 °F 51% 30.22 in 10.0 mi NNE 23.0 mph 29.9 mph N/A   Clear
3:55 PM 53.4 °F - 36.7 °F 53% 30.22 in 10.0 mi North 19.6 mph 25.3 mph N/A   Clear
4:15 PM 53.1 °F - 35.8 °F 52% 30.23 in 10.0 mi North 19.6 mph 24.2 mph N/A   Clear
4:35 PM 52.9 °F - 35.6 °F 52% 30.24 in 10.0 mi North 19.6 mph 24.2 mph N/A   Clear
4:55 PM 52.9 °F - 33.3 °F 47% 30.24 in 10.0 mi North 17.3 mph 25.3 mph N/A   Clear
5:15 PM 52.3 °F - 32.9 °F 48% 30.23 in 10.0 mi North 19.6 mph - N/A   Clear
5:35 PM 51.8 °F - 31.5 °F 46% 30.24 in 10.0 mi North 18.4 mph 24.2 mph N/A   Clear
5:55 PM 51.3 °F - 31.6 °F 47% 30.25 in 10.0 mi NNE 16.1 mph 25.3 mph N/A   Clear
6:15 PM 50.0 °F - 32.2 °F 50% 30.27 in 10.0 mi North 12.7 mph 21.9 mph N/A   Clear
6:35 PM 50.0 °F - 31.3 °F 49% 30.27 in 10.0 mi North 16.1 mph - N/A   Clear
6:55 PM 49.5 °F - 31.8 °F 51% 30.26 in 10.0 mi North 17.3 mph - N/A   Clear
7:15 PM 48.4 °F - 32.0 °F 53% 30.26 in 10.0 mi North 18.4 mph - N/A   Clear
7:35 PM 47.5 °F - 31.3 °F 53% 30.26 in 10.0 mi North 17.3 mph - N/A   Clear
7:55 PM 46.6 °F - 32.0 °F 57% 30.26 in 10.0 mi North 16.1 mph - N/A   Clear
8:15 PM 45.9 °F 39.7 °F 32.7 °F 60% 30.27 in 10.0 mi North 13.8 mph - N/A   Clear
8:35 PM 45.3 °F 39.0 °F 32.9 °F 62% 30.26 in 10.0 mi North 13.8 mph - N/A   Clear
8:55 PM 44.6 °F 37.8 °F 32.9 °F 64% 30.27 in 10.0 mi North 15.0 mph - N/A   Clear
9:15 PM 44.6 °F 37.8 °F 32.9 °F 64% 30.26 in 10.0 mi North 15.0 mph - N/A   Clear
9:35 PM 44.1 °F 37.1 °F 33.1 °F 65% 30.26 in 10.0 mi North 15.0 mph - N/A   Clear
9:55 PM 43.7 °F 36.9 °F 32.9 °F 66% 30.27 in 10.0 mi North 13.8 mph - N/A   Clear
10:15 PM 43.2 °F 35.9 °F 33.1 °F 68% 30.27 in 10.0 mi NNE 15.0 mph - N/A   Clear
10:35 PM 43.0 °F 36.0 °F 32.9 °F 68% 30.27 in 10.0 mi NNE 13.8 mph - N/A   Clear
10:55 PM 42.4 °F 35.3 °F 32.5 °F 68% 30.27 in 10.0 mi NNE 13.8 mph - N/A   Clear
11:15 PM 41.9 °F 35.4 °F 32.4 °F 69% 30.27 in 10.0 mi NNE 11.5 mph - N/A   Clear
11:35 PM 41.9 °F 35.4 °F 32.0 °F 68% 30.25 in 10.0 mi NNE 11.5 mph - N/A   Clear
11:55 PM 41.4 °F 34.7 °F 32.0 °F 69% 30.25 in 10.0 mi NNE 11.5 mph - N/A   Clear